Weather History for Lafayette, IN

Change the Weather History Date:

Wednesday, December 22, 2010

  Actual Average Record
Temperature  
Mean Temperature 26 °F 28 °F  
Max Temperature 34 °F 36 °F 57 °F (1988)
Min Temperature 18 °F 21 °F -11 °F (1983)
Degree Days  
Heating Degree Days 39 37  
Month to date heating degree days 956 736  
Since 1 July heating degree days 1914 1837  
Cooling Degree Days 0 0  
Month to date cooling degree days 0 0  
Year to date cooling degree days 1342 983  
Moisture  
Dew Point 22 °F    
Average Humidity 86    
Maximum Humidity 96    
Minimum Humidity 75    
Precipitation  
Precipitation T in 0.08 in 0.86 in (1981)
Month to date precipitation 0.70 1.86  
Year to date precipitation 35.45 35.93  
Sea Level Pressure  
Sea Level Pressure 30.21 in    
Wind  
Wind Speed 9 mph (WNW)    
Max Wind Speed 22 mph    
Max Gust Speed 30 mph    
Visibility 5 miles    
Events Snow    
T = Trace of Precipitation, MM = Missing Value Source: NWS Daily Summary

Daily Weather History Graph

Daily Weather History Graph

Search for Another Location

Airport:

Trip Planner

Search our weather history database for the weather conditions in past years. The results will help you decide how hot, cold, wet, or windy it might be!

Date:

Astronomy

Dec. 22, 2010 Rise Set
Actual Time 8:07 AM EST 5:24 PM EST
Civil Twilight 7:37 AM EST 5:55 PM EST
Nautical Twilight 7:02 AM EST 6:30 PM EST
Astronomical Twilight 6:29 AM EST 7:03 PM EST
Moon 7:06 PM EST (12/22) 9:11 AM EST (12/22)
Length of Visible Light 10h 18m
Length of Day
9h 17m
Full, 98% of the Moon is Illuminated
Dec 22
Full
Dec 27
Last Quarter
Jan 4
New
Jan 12
First Quarter
Jan 19
Full

Hourly Weather History & Observations

Time (EST) Temp. Windchill Dew Point Humidity Pressure Visibility Wind Dir Wind Speed Gust Speed Precip Events Conditions
12:39 AM 33.8 °F - 30.2 °F 87% 30.01 in 3.0 mi Calm Calm - N/A   Overcast
12:54 AM 33.1 °F 30.0 °F 30.9 °F 92% 30.03 in 3.0 mi West 3.5 mph - N/A   Overcast
1:31 AM 33.8 °F 30.8 °F 30.2 °F 87% 30.01 in 3.0 mi West 3.5 mph - N/A   Overcast
1:46 AM 33.8 °F 30.8 °F 30.2 °F 87% 30.00 in 2.0 mi West 3.5 mph - N/A   Overcast
1:54 AM 34.0 °F 29.8 °F 32.0 °F 92% 30.03 in 2.0 mi West 4.6 mph - N/A   Overcast
2:03 AM 33.8 °F 28.6 °F 32.0 °F 93% 30.01 in 2.0 mi West 5.8 mph - N/A   Overcast
2:28 AM 33.8 °F 25.8 °F 32.0 °F 93% 30.01 in 1.8 mi WNW 10.4 mph - N/A   Overcast
2:46 AM 33.8 °F 25.3 °F 33.8 °F 100% 30.01 in 2.0 mi NW 11.5 mph - N/A   Overcast
2:54 AM 34.0 °F 26.6 °F 32.0 °F 92% 30.03 in 2.0 mi NW 9.2 mph 18.4 mph N/A   Overcast
3:10 AM 33.8 °F 25.3 °F 32.0 °F 93% 30.01 in 4.0 mi WNW 11.5 mph - N/A   Overcast
3:23 AM 33.8 °F 25.3 °F 32.0 °F 93% 30.01 in 4.0 mi WNW 11.5 mph - N/A   Overcast
3:54 AM 33.1 °F 22.6 °F 27.0 °F 78% 30.02 in 8.0 mi WNW 16.1 mph - N/A   Overcast
4:02 AM 32.0 °F 21.6 °F 26.6 °F 80% 30.01 in 9.0 mi WNW 15.0 mph - N/A   Overcast
4:54 AM 26.1 °F 13.1 °F 19.9 °F 78% 30.07 in 10.0 mi NW 17.3 mph 24.2 mph N/A   Mostly Cloudy
5:12 AM 24.8 °F 12.9 °F 17.6 °F 74% 30.05 in 10.0 mi NW 13.8 mph - N/A   Partly Cloudy
5:54 AM 19.9 °F 6.7 °F 15.1 °F 81% 30.09 in 10.0 mi NW 13.8 mph 24.2 mph N/A   Clear
6:35 AM 19.4 °F 4.5 °F 14.0 °F 80% 30.09 in 9.0 mi NW 17.3 mph 29.9 mph N/A   Mostly Cloudy
6:54 AM 18.0 °F 1.7 °F 14.0 °F 84% 30.12 in 8.0 mi NW 19.6 mph 25.3 mph N/A   Overcast
7:54 AM 19.9 °F 7.9 °F 16.0 °F 85% 30.14 in 8.0 mi NW 11.5 mph - N/A   Overcast
8:54 AM 21.9 °F 10.4 °F 17.1 °F 82% 30.16 in 6.0 mi NW 11.5 mph 20.7 mph N/A   Haze
9:54 AM 23.0 °F 13.1 °F 18.0 °F 81% 30.19 in 5.0 mi NW 9.2 mph - N/A   Haze
10:17 AM 24.8 °F 15.3 °F 17.6 °F 74% 30.18 in 4.0 mi NW 9.2 mph - N/A   Haze
10:46 AM 24.8 °F 14.6 °F 19.4 °F 80% 30.19 in 4.0 mi NW 10.4 mph - N/A   Haze
10:54 AM 24.1 °F 13.7 °F 19.0 °F 81% 30.22 in 3.0 mi WNW 10.4 mph - N/A   Haze
11:05 AM 24.8 °F 14.6 °F 19.4 °F 80% 30.20 in 2.5 mi NW 10.4 mph 18.4 mph 0.00 in Snow Light Snow
11:54 AM 25.0 °F 14.8 °F 21.0 °F 85% 30.21 in 3.0 mi WNW 10.4 mph - 0.00 in Snow Light Snow
12:29 PM 26.6 °F 16.8 °F 21.2 °F 80% 30.19 in 4.0 mi NW 10.4 mph - 0.00 in   Overcast
12:54 PM 27.0 °F 17.3 °F 21.9 °F 81% 30.22 in 4.0 mi NW 10.4 mph 18.4 mph 0.00 in   Haze
1:54 PM 28.0 °F 18.6 °F 24.1 °F 85% 30.24 in 6.0 mi NW 10.4 mph - N/A   Overcast
2:54 PM 30.0 °F 21.1 °F 25.0 °F 82% 30.25 in 5.0 mi NNW 10.4 mph - N/A   Haze
4:54 PM 32.0 °F 27.5 °F 26.1 °F 79% 30.33 in 6.0 mi NNW 4.6 mph - N/A   Haze
5:01 PM 32.0 °F 26.4 °F 26.6 °F 80% 30.31 in 6.0 mi NNW 5.8 mph - N/A   Haze
5:37 PM 30.2 °F 25.4 °F 24.8 °F 80% 30.33 in 6.0 mi NNW 4.6 mph - N/A   Haze
5:54 PM 28.9 °F 23.9 °F 24.1 °F 82% 30.37 in 7.0 mi NNW 4.6 mph - N/A   Clear
6:54 PM 26.1 °F 21.9 °F 21.9 °F 84% 30.39 in 9.0 mi NNW 3.5 mph - N/A   Clear
7:12 PM 26.6 °F - 21.2 °F 80% 30.37 in 7.0 mi Calm Calm - N/A   Mostly Cloudy
7:39 PM 21.2 °F 13.6 °F 19.4 °F 93% 30.38 in 7.0 mi NNW 5.8 mph - N/A   Partly Cloudy
7:54 PM 23.0 °F 17.0 °F 21.0 °F 92% 30.40 in 7.0 mi North 4.6 mph - N/A   Clear
8:54 PM 21.9 °F 15.7 °F 19.9 °F 92% 30.42 in 3.0 mi West 4.6 mph - N/A   Clear
9:07 PM 21.2 °F 14.9 °F 19.4 °F 93% 30.40 in 2.5 mi West 4.6 mph - N/A   Clear
9:17 PM 21.2 °F 16.4 °F 19.4 °F 93% 30.40 in 3.0 mi West 3.5 mph - N/A   Clear
9:28 PM 19.4 °F 14.3 °F 19.4 °F 100% 30.40 in 1.8 mi West 3.5 mph - N/A   Clear
9:54 PM 19.0 °F 11.1 °F 17.1 °F 92% 30.44 in 1.8 mi WNW 5.8 mph - N/A   Clear
10:01 PM 17.6 °F 12.3 °F 15.8 °F 93% 30.41 in 3.0 mi WNW 3.5 mph - N/A   Clear
10:11 PM 19.4 °F 14.3 °F 17.6 °F 93% 30.40 in 1.8 mi West 3.5 mph - N/A   Partly Cloudy
10:28 PM 17.6 °F 10.7 °F 15.8 °F 93% 30.42 in 3.0 mi West 4.6 mph - N/A   Mostly Cloudy
10:54 PM 19.9 °F 14.9 °F 17.1 °F 89% 30.45 in 4.0 mi WNW 3.5 mph - N/A   Mostly Cloudy
11:19 PM 19.4 °F 14.3 °F 15.8 °F 86% 30.43 in 4.0 mi WSW 3.5 mph - N/A   Mostly Cloudy
11:54 PM 19.9 °F 13.4 °F 17.1 °F 89% 30.46 in 4.0 mi West 4.6 mph - 0.00 in Snow Light Snow